This is the latest recevied weather packets stored in our database for station/object OE3XOC-11. If no packets are shown the sender has not sent any weather packets the latest 10 day(s).
| Time | Temp. | Humidity | Pressure | Rain* | Wind** | Luminosity | Snow |
|---|---|---|---|---|---|---|---|
| 1777141030 | 20° C | 27% | 958.2 hPa | - | - | - | - |
| 1777140730 | 20° C | 28% | 958 hPa | - | - | - | - |
| 1777140430 | 20° C | 27% | 958 hPa | - | - | - | - |
| 1777140130 | 20.56° C | 27% | 957.9 hPa | - | - | - | - |
| 1777139830 | 20.56° C | 27% | 958 hPa | - | - | - | - |
| 1777139530 | 20.56° C | 27% | 957.9 hPa | - | - | - | - |
| 1777139230 | 20.56° C | 27% | 957.8 hPa | - | - | - | - |
| 1777138930 | 21.11° C | 26% | 958 hPa | - | - | - | - |
| 1777138630 | 21.11° C | 26% | 957.8 hPa | - | - | - | - |
| 1777138330 | 21.11° C | 26% | 957.9 hPa | - | - | - | - |
| 1777138030 | 21.11° C | 26% | 957.8 hPa | - | - | - | - |
| 1777137730 | 21.11° C | 26% | 957.8 hPa | - | - | - | - |
| 1777137430 | 21.67° C | 25% | 957.8 hPa | - | - | - | - |
| 1777137130 | 21.67° C | 25% | 957.9 hPa | - | - | - | - |
| 1777136830 | 21.67° C | 24% | 957.8 hPa | - | - | - | - |
| 1777136530 | 22.22° C | 24% | 957.7 hPa | - | - | - | - |
| 1777136230 | 21.67° C | 25% | 957.7 hPa | - | - | - | - |
| 1777135930 | 22.22° C | 24% | 957.8 hPa | - | - | - | - |
| 1777135630 | 21.67° C | 24% | 957.8 hPa | - | - | - | - |
| 1777135330 | 22.22° C | 24% | 957.9 hPa | - | - | - | - |
| 1777135030 | 22.78° C | 24% | 958 hPa | - | - | - | - |
| 1777134730 | 22.22° C | 24% | 957.9 hPa | - | - | - | - |
| 1777134430 | 22.22° C | 23% | 957.9 hPa | - | - | - | - |
| 1777134130 | 22.22° C | 22% | 957.9 hPa | - | - | - | - |
| 1777133830 | 22.22° C | 22% | 957.8 hPa | - | - | - | - |
* Rain since midnight (hover to see other rain measurements)
** Current wind speed in m/s (hover to see current wind gust speed)